Time,TemperatureF,DewpointF,PressureIn,WindDirection,WindDirectionDegrees,WindSpeedMPH,WindSpeedGustMPH,Humidity,HourlyPrecipIn,Conditions,Clouds,dailyrainin,SolarRadiationWatts/m^2,SoftwareType,DateUTC
2013-12-21 00:02:00,29.0,25.0,-100.00,NNW,327,3.0,5.0,83,0.00,,,0.00,1.000000,,2013-12-21 07:02:00,
2013-12-21 00:11:00,29.0,25.0,-100.00,NNW,327,3.0,5.0,83,0.00,,,0.00,1.000000,,2013-12-21 07:11:00,
2013-12-21 00:42:00,27.0,24.0,-100.00,NW,318,2.0,5.0,88,0.00,,,0.00,1.000000,,2013-12-21 07:42:00,
2013-12-21 00:53:00,27.0,24.0,-100.00,NW,318,2.0,5.0,88,0.00,,,0.00,1.000000,,2013-12-21 07:53:00,
2013-12-21 01:02:00,27.0,24.0,-100.00,NW,318,2.0,5.0,88,0.00,,,0.00,1.000000,,2013-12-21 08:02:00,
2013-12-21 01:11:00,27.0,24.0,-100.00,NW,318,2.0,5.0,88,0.00,,,0.00,1.000000,,2013-12-21 08:11:00,
2013-12-21 01:42:00,28.0,25.0,-100.00,WNW,284,6.0,10.0,89,0.00,,,0.00,1.000000,,2013-12-21 08:42:00,
2013-12-21 01:52:00,28.0,25.0,-100.00,WNW,284,6.0,10.0,89,0.00,,,0.00,1.000000,,2013-12-21 08:52:00,
2013-12-21 02:02:00,28.0,25.0,-100.00,WNW,284,6.0,10.0,89,0.00,,,0.00,1.000000,,2013-12-21 09:02:00,
2013-12-21 02:11:00,28.0,25.0,-100.00,WNW,284,6.0,10.0,89,0.00,,,0.00,1.000000,,2013-12-21 09:11:00,
2013-12-21 02:43:00,25.0,23.0,-100.00,WSW,255,4.0,7.0,91,0.00,,,0.00,1.000000,,2013-12-21 09:43:00,
2013-12-21 02:54:00,25.0,23.0,-100.00,WSW,255,4.0,7.0,91,0.00,,,0.00,1.000000,,2013-12-21 09:54:00,
2013-12-21 03:03:00,25.0,23.0,-100.00,WSW,255,4.0,7.0,91,0.00,,,0.00,1.000000,,2013-12-21 10:03:00,
2013-12-21 03:12:00,25.0,23.0,-100.00,WSW,255,4.0,7.0,91,0.00,,,0.00,1.000000,,2013-12-21 10:12:00,
2013-12-21 03:43:00,25.0,23.0,-100.00,West,274,5.0,10.0,92,0.00,,,0.00,1.000000,,2013-12-21 10:43:00,
2013-12-21 03:53:00,25.0,23.0,-100.00,West,274,5.0,10.0,92,0.00,,,0.00,1.000000,,2013-12-21 10:53:00,
2013-12-21 04:02:00,25.0,23.0,-100.00,West,274,5.0,10.0,92,0.00,,,0.00,1.000000,,2013-12-21 11:02:00,
2013-12-21 04:12:00,25.0,23.0,-100.00,West,274,5.0,10.0,92,0.00,,,0.00,1.000000,,2013-12-21 11:12:00,
2013-12-21 04:42:00,24.0,22.0,-100.00,WNW,287,5.0,9.0,91,0.00,,,0.00,1.000000,,2013-12-21 11:42:00,
2013-12-21 04:53:00,24.0,22.0,-100.00,WNW,287,5.0,9.0,91,0.00,,,0.00,1.000000,,2013-12-21 11:53:00,
2013-12-21 05:02:00,24.0,22.0,-100.00,WNW,287,5.0,9.0,91,0.00,,,0.00,1.000000,,2013-12-21 12:02:00,
2013-12-21 05:12:00,24.0,22.0,-100.00,WNW,287,5.0,9.0,91,0.00,,,0.00,1.000000,,2013-12-21 12:12:00,
2013-12-21 05:42:00,23.0,21.0,-100.00,WNW,282,6.0,11.0,90,0.00,,,0.00,1.000000,,2013-12-21 12:42:00,
2013-12-21 05:52:00,23.0,21.0,-100.00,WNW,282,6.0,11.0,90,0.00,,,0.00,1.000000,,2013-12-21 12:52:00,
2013-12-21 06:02:00,23.0,21.0,-100.00,WNW,282,6.0,11.0,90,0.00,,,0.00,1.000000,,2013-12-21 13:02:00,
2013-12-21 06:11:00,23.0,21.0,-100.00,WNW,282,6.0,11.0,90,0.00,,,0.00,1.000000,,2013-12-21 13:11:00,
2013-12-21 06:42:00,22.0,20.0,-100.00,WNW,286,6.0,14.0,90,0.00,,,0.00,1.000000,,2013-12-21 13:42:00,
2013-12-21 06:52:00,22.0,20.0,-100.00,WNW,286,6.0,14.0,90,0.00,,,0.00,1.000000,,2013-12-21 13:52:00,
2013-12-21 07:02:00,22.0,20.0,-100.00,WNW,286,6.0,14.0,90,0.00,,,0.00,1.000000,,2013-12-21 14:02:00,
2013-12-21 07:12:00,22.0,20.0,-100.00,WNW,286,6.0,14.0,90,0.00,,,0.00,1.000000,,2013-12-21 14:12:00,
2013-12-21 07:42:00,21.0,18.0,-100.00,West,259,5.0,10.0,89,0.00,,,0.00,1.000000,,2013-12-21 14:42:00,
2013-12-21 07:53:00,21.0,18.0,-100.00,West,259,5.0,10.0,89,0.00,,,0.00,1.000000,,2013-12-21 14:53:00,
2013-12-21 08:02:00,21.0,18.0,-100.00,West,259,5.0,10.0,89,0.00,,,0.00,1.000000,,2013-12-21 15:02:00,
2013-12-21 08:12:00,21.0,18.0,-100.00,West,259,5.0,10.0,89,0.00,,,0.00,1.000000,,2013-12-21 15:12:00,
2013-12-21 08:44:00,22.0,19.0,-100.00,West,275,7.0,13.0,89,0.00,,,0.00,28.000000,,2013-12-21 15:44:00,
2013-12-21 08:53:00,22.0,19.0,-100.00,West,275,7.0,13.0,89,0.00,,,0.00,28.000000,,2013-12-21 15:53:00,
2013-12-21 09:03:00,22.0,19.0,-100.00,West,275,7.0,13.0,89,0.00,,,0.00,28.000000,,2013-12-21 16:03:00,
2013-12-21 09:13:00,22.0,19.0,-100.00,West,275,7.0,13.0,89,0.00,,,0.00,28.000000,,2013-12-21 16:13:00,
2013-12-21 09:43:00,24.0,22.0,-100.00,West,275,6.0,13.0,90,0.00,,,0.00,128.000000,,2013-12-21 16:43:00,
2013-12-21 09:53:00,24.0,22.0,-100.00,West,275,6.0,13.0,90,0.00,,,0.00,128.000000,,2013-12-21 16:53:00,
2013-12-21 10:03:00,24.0,22.0,-100.00,West,275,6.0,13.0,90,0.00,,,0.00,128.000000,,2013-12-21 17:03:00,
2013-12-21 10:12:00,24.0,22.0,-100.00,West,275,6.0,13.0,90,0.00,,,0.00,128.000000,,2013-12-21 17:12:00,
2013-12-21 10:43:00,24.0,22.0,-100.00,West,274,7.0,14.0,90,0.00,,,0.00,127.000000,,2013-12-21 17:43:00,
2013-12-21 10:53:00,24.0,22.0,-100.00,West,274,7.0,14.0,90,0.00,,,0.00,127.000000,,2013-12-21 17:53:00,
2013-12-21 11:02:00,24.0,22.0,-100.00,West,274,7.0,14.0,90,0.00,,,0.00,127.000000,,2013-12-21 18:02:00,
2013-12-21 11:12:00,24.0,22.0,-100.00,West,274,7.0,14.0,90,0.00,,,0.00,127.000000,,2013-12-21 18:12:00,
2013-12-21 11:42:00,24.0,22.0,-100.00,West,275,6.0,15.0,90,0.00,,,0.00,193.000000,,2013-12-21 18:42:00,
2013-12-21 11:52:00,24.0,22.0,-100.00,West,275,6.0,15.0,90,0.00,,,0.00,193.000000,,2013-12-21 18:52:00,
2013-12-21 12:02:00,24.0,22.0,-100.00,West,275,6.0,15.0,90,0.00,,,0.00,193.000000,,2013-12-21 19:02:00,
2013-12-21 12:11:00,24.0,22.0,-100.00,West,275,6.0,15.0,90,0.00,,,0.00,193.000000,,2013-12-21 19:11:00,
2013-12-21 12:42:00,25.0,22.0,-100.00,West,266,9.0,16.0,88,0.00,,,0.00,356.000000,,2013-12-21 19:42:00,
2013-12-21 12:52:00,25.0,22.0,-100.00,West,266,9.0,16.0,88,0.00,,,0.00,356.000000,,2013-12-21 19:52:00,
2013-12-21 13:02:00,25.0,22.0,-100.00,West,266,9.0,16.0,88,0.00,,,0.00,356.000000,,2013-12-21 20:02:00,
2013-12-21 13:12:00,25.0,22.0,-100.00,West,266,9.0,16.0,88,0.00,,,0.00,356.000000,,2013-12-21 20:12:00,
2013-12-21 13:42:00,25.0,22.0,-100.00,West,273,9.0,20.0,88,0.00,,,0.00,222.000000,,2013-12-21 20:42:00,
2013-12-21 13:52:00,25.0,22.0,-100.00,West,273,9.0,20.0,88,0.00,,,0.00,222.000000,,2013-12-21 20:52:00,
2013-12-21 14:02:00,25.0,22.0,-100.00,West,273,9.0,20.0,88,0.00,,,0.00,222.000000,,2013-12-21 21:02:00,
2013-12-21 14:11:00,25.0,22.0,-100.00,West,273,9.0,20.0,88,0.00,,,0.00,222.000000,,2013-12-21 21:11:00,
2013-12-21 14:43:00,24.0,21.0,-100.00,West,276,10.0,19.0,87,0.00,,,0.00,152.000000,,2013-12-21 21:43:00,
2013-12-21 14:53:00,24.0,21.0,-100.00,West,276,10.0,19.0,87,0.00,,,0.00,152.000000,,2013-12-21 21:53:00,
2013-12-21 15:03:00,24.0,21.0,-100.00,West,276,10.0,19.0,87,0.00,,,0.00,152.000000,,2013-12-21 22:03:00,
2013-12-21 15:12:00,24.0,21.0,-100.00,West,276,10.0,19.0,87,0.00,,,0.00,152.000000,,2013-12-21 22:12:00,
2013-12-21 15:42:00,23.0,20.0,-100.00,West,276,10.0,21.0,87,0.00,,,0.00,72.000000,,2013-12-21 22:42:00,
2013-12-21 15:53:00,23.0,20.0,-100.00,West,276,10.0,21.0,87,0.00,,,0.00,72.000000,,2013-12-21 22:53:00,
2013-12-21 16:02:00,23.0,20.0,-100.00,West,276,10.0,21.0,87,0.00,,,0.00,72.000000,,2013-12-21 23:02:00,
2013-12-21 16:12:00,23.0,20.0,-100.00,West,276,10.0,21.0,87,0.00,,,0.00,72.000000,,2013-12-21 23:12:00,
2013-12-21 16:43:00,24.0,21.0,-100.00,West,273,8.0,21.0,87,0.00,,,0.00,32.000000,,2013-12-21 23:43:00,
2013-12-21 16:53:00,24.0,21.0,-100.00,West,273,8.0,21.0,87,0.00,,,0.00,32.000000,,2013-12-21 23:53:00,
2013-12-21 17:02:00,24.0,21.0,-100.00,West,273,8.0,21.0,87,0.00,,,0.00,32.000000,,2013-12-22 00:02:00,
2013-12-21 17:11:00,24.0,21.0,-100.00,West,273,8.0,21.0,87,0.00,,,0.00,32.000000,,2013-12-22 00:11:00,
2013-12-21 17:42:00,24.0,20.0,-100.00,West,279,9.0,23.0,86,0.00,,,0.00,9.000000,,2013-12-22 00:42:00,
2013-12-21 17:52:00,24.0,20.0,-100.00,West,279,9.0,23.0,86,0.00,,,0.00,9.000000,,2013-12-22 00:52:00,
2013-12-21 18:02:00,24.0,20.0,-100.00,West,279,9.0,23.0,86,0.00,,,0.00,9.000000,,2013-12-22 01:02:00,
2013-12-21 18:11:00,24.0,20.0,-100.00,West,279,9.0,23.0,86,0.00,,,0.00,9.000000,,2013-12-22 01:11:00,
2013-12-21 18:42:00,24.0,21.0,-100.00,West,274,9.0,18.0,88,0.00,,,0.00,1.000000,,2013-12-22 01:42:00,
2013-12-21 18:52:00,24.0,21.0,-100.00,West,274,9.0,18.0,88,0.00,,,0.00,1.000000,,2013-12-22 01:52:00,
2013-12-21 19:02:00,24.0,21.0,-100.00,West,274,9.0,18.0,88,0.00,,,0.00,1.000000,,2013-12-22 02:02:00,
2013-12-21 19:11:00,24.0,21.0,-100.00,West,274,9.0,18.0,88,0.00,,,0.00,1.000000,,2013-12-22 02:11:00,
2013-12-21 19:42:00,23.0,19.0,-100.00,West,278,9.0,18.0,86,0.00,,,0.00,1.000000,,2013-12-22 02:42:00,
2013-12-21 19:52:00,23.0,19.0,-100.00,West,278,9.0,18.0,86,0.00,,,0.00,1.000000,,2013-12-22 02:52:00,
2013-12-21 20:02:00,23.0,19.0,-100.00,West,278,9.0,18.0,86,0.00,,,0.00,1.000000,,2013-12-22 03:02:00,
2013-12-21 20:11:00,23.0,19.0,-100.00,West,278,9.0,18.0,86,0.00,,,0.00,1.000000,,2013-12-22 03:11:00,
2013-12-21 20:43:00,23.0,19.0,-100.00,West,274,10.0,19.0,83,0.00,,,0.00,1.000000,,2013-12-22 03:43:00,
2013-12-21 20:54:00,23.0,19.0,-100.00,West,274,10.0,19.0,83,0.00,,,0.00,1.000000,,2013-12-22 03:54:00,
2013-12-21 21:02:00,-999.0,-99.9,-100.00,West,274,10.0,19.0,-999,0.00,,,-99.99,1.000000,,2013-12-22 04:02:00,
2013-12-21 21:13:00,23.0,19.0,-100.00,West,274,10.0,19.0,83,0.00,,,0.00,1.000000,,2013-12-22 04:13:00,
2013-12-21 21:43:00,22.0,19.0,-100.00,West,272,10.0,22.0,89,0.00,,,0.00,1.000000,,2013-12-22 04:43:00,
2013-12-21 21:53:00,22.0,19.0,-100.00,West,272,10.0,22.0,89,0.00,,,0.00,1.000000,,2013-12-22 04:53:00,
2013-12-21 22:03:00,22.0,19.0,-100.00,West,272,10.0,22.0,89,0.00,,,0.00,1.000000,,2013-12-22 05:03:00,
2013-12-21 22:12:00,22.0,19.0,-100.00,West,272,10.0,22.0,89,0.00,,,0.00,1.000000,,2013-12-22 05:12:00,
2013-12-21 22:43:00,21.0,19.0,-100.00,West,262,8.0,21.0,90,0.00,,,0.00,1.000000,,2013-12-22 05:43:00,
2013-12-21 22:53:00,21.0,19.0,-100.00,West,262,8.0,21.0,90,0.00,,,0.00,1.000000,,2013-12-22 05:53:00,
2013-12-21 23:02:00,21.0,19.0,-100.00,West,262,8.0,21.0,90,0.00,,,0.00,1.000000,,2013-12-22 06:02:00,
2013-12-21 23:12:00,21.0,19.0,-100.00,West,262,8.0,21.0,90,0.00,,,0.00,1.000000,,2013-12-22 06:12:00,
2013-12-21 23:42:00,20.0,17.0,-100.00,West,269,7.0,16.0,89,0.00,,,0.00,1.000000,,2013-12-22 06:42:00,
2013-12-21 23:52:00,20.0,17.0,-100.00,West,269,7.0,16.0,89,0.00,,,0.00,1.000000,,2013-12-22 06:52:00,